{"data":{"norad_id":48048,"intl_designator":"2021-025G","name":"ONEWEB-0107","alt_names":[],"object_type":"PAYLOAD","status":"ACTIVE","operator":null,"country":"UK","launch_date":"2021-03-25","launch_site_code":"VOSTO","launch_vehicle":null,"mission":null,"orbit_class":"UNKNOWN","rcs_meters":null,"size_class":null,"mass_kg":null,"dimensions":null,"purposes":["comms"],"wikipedia_slug":null,"has_3d_model":false,"image_url":null,"decayed_at":null,"tle_current":{"epoch":"2026-05-25T00:32:49.975296Z","epoch_age_seconds":73196,"freshness":"FRESH","line1":"1 48048U 21025G   26145.02280064  .00000290  00000+0  75978-3 0  9993","line2":"2 48048  87.8950 324.8239 0001693  99.6510 260.4810 13.13468499250481","mean_motion":13.13468499,"eccentricity":0.0001693,"inclination_deg":87.895,"raan_deg":324.8239,"arg_perigee_deg":99.651,"mean_anomaly_deg":260.481,"bstar":0.00075978,"rev_number":25048,"period_min":109.63338679963,"perigee_km":1208.4865478916,"apogee_km":1211.0558136016,"semimajor_km":7587.9081807466,"source":"CELESTRAK","updated_at":"2026-05-25T13:38:22.388665Z"}}}